This demonstration page uses our WeatherBlox Daily Observations layout. Learn more.

38.88101, -77.10428

Hourly Observations for October 3, 2020

Temp ( °F °C ) Dew Point ( °F °C ) Humidity (%) Winds ( mph kmh ) Pressure ( in mb ) Visibility ( mi km ) Precip ( " mm )
12:52 am 00:52 Clear 54 12.2 42 5.6 64 64 NNW 10 17 30.17 1022 10 16.0934 0 0
1:52 am 01:52 Clear 53 11.7 43 6.1 69 69 NNW 13 20 30.17 1022 10 16.0934 0 0
2:52 am 02:52 Clear 52 11.1 43 6.1 72 72 NNW 12 19 30.17 1022 10 16.0934 0 0
3:52 am 03:52 Clear 52 11.1 42 5.6 69 69 NNW 13 20 30.19 1022 10 16.0934 0 0
4:52 am 04:52 Clear 53 11.7 42 5.6 66 66 NNW 12 19 30.2 1023 10 16.0934 0 0
5:52 am 05:52 Mostly Clear 50 10 42 5.6 74 74 NNW 9 15 30.22 1023 10 16.0934 0 0
6:52 am 06:52 Mostly Clear 49 9.4 43 6.1 80 80 NNW 9 15 30.23 1024 10 16.0934 0 0
7:52 am 07:52 Mostly Sunny 51 10.6 43 6.1 74 74 NNW 9 15 30.24 1024 10 16.0934 0 0
8:52 am 08:52 Mostly Sunny 54 12.2 44 6.7 69 69 NNW 13 20 30.26 1025 10 16.0934 0 0
9:52 am 09:52 Mostly Sunny 58 14.4 45 7.2 62 62 NNW 7 11 30.27 1025 10 16.0934 0 0
10:52 am 10:52 Mostly Sunny 62 16.7 44 6.7 52 52 NW 5 7 30.27 1025 10 16.0934 0 0
11:52 am 11:52 Mostly Sunny 64 17.8 41 5 43 43 N 5 7 30.27 1025 10 16.0934 0 0
12:52 pm 12:52 Mostly Sunny 65 18.3 39 3.9 39 39 WNW 6 9 30.26 1025 10 16.0934 0 0
1:52 pm 13:52 Mostly Sunny 67 19.4 39 3.9 36 36 VRB 7 11 30.24 1024 10 16.0934 0 0
2:52 pm 14:52 Mostly Sunny 68 20 39 3.9 35 35 VRB 3 6 30.23 1024 10 16.0934 0 0
3:52 pm 15:52 Mostly Sunny 68 20 41 5 38 38 NW 7 11 30.22 1024 10 16.0934 0 0
4:52 pm 16:52 Mostly Sunny 67 19.4 40 4.4 37 37 N 5 7 30.22 1023 10 16.0934 0 0
5:52 pm 17:52 Mostly Sunny 65 18.3 39 3.9 39 39 NNW 8 13 30.24 1024 10 16.0934 0 0
6:52 pm 18:52 Clear 61 16.1 39 3.9 44 44 NNW 8 13 30.24 1024 10 16.0934 0 0
7:52 pm 19:52 Clear 60 15.6 40 4.4 47 47 NNW 5 7 30.24 1024 10 16.0934 0 0
8:52 pm 20:52 Clear 60 15.6 42 5.6 52 52 SE 3 6 30.25 1024 10 16.0934 0 0
9:52 pm 21:52 Clear 57 13.9 45 7.2 64 64 Calm 30.26 1025 10 16.0934 0 0
10:52 pm 22:52 Clear 56 13.3 46 7.8 70 70 Calm 30.27 1025 10 16.0934 0 0
11:52 pm 23:52 Clear 55 12.8 47 8.3 74 74 Calm 30.27 1025 10 16.0934 0 0

Powered by AerisWeather